Time,TemperatureF,DewpointF,PressureIn,WindDirection,WindDirectionDegrees,WindSpeedMPH,WindSpeedGustMPH,Humidity,HourlyPrecipIn,Conditions,Clouds,dailyrainin,SolarRadiationWatts/m^2,SoftwareType,DateUTC
2013-08-24 00:04:00,68.0,68.0,-100.00,NNW,334,0.0,0.0,100,0.00,,,0.03,0.000000,,2013-08-24 04:04:00,
2013-08-24 00:14:00,68.0,68.0,-100.00,NNW,334,0.0,0.0,100,0.00,,,0.03,0.000000,,2013-08-24 04:14:00,
2013-08-24 00:24:00,68.0,68.0,-100.00,NNW,334,0.0,0.0,100,0.00,,,0.03,0.000000,,2013-08-24 04:24:00,
2013-08-24 00:31:00,69.0,69.0,-100.00,North,354,0.0,3.0,100,0.00,,,0.03,0.000000,,2013-08-24 04:31:00,
2013-08-24 00:54:00,69.0,69.0,-100.00,North,354,0.0,3.0,100,0.00,,,0.03,0.000000,,2013-08-24 04:54:00,
2013-08-24 01:03:00,69.0,69.0,-100.00,North,354,0.0,3.0,100,0.00,,,0.03,0.000000,,2013-08-24 05:03:00,
2013-08-24 01:13:00,69.0,69.0,-100.00,North,354,0.0,3.0,100,0.00,,,0.03,0.000000,,2013-08-24 05:13:00,
2013-08-24 01:23:00,69.0,69.0,-100.00,North,354,0.0,3.0,100,0.00,,,0.03,0.000000,,2013-08-24 05:23:00,
2013-08-24 01:31:00,69.0,68.0,-100.00,North,4,2.0,7.0,98,0.00,,,0.03,0.000000,,2013-08-24 05:31:00,
2013-08-24 01:53:00,69.0,68.0,-100.00,North,4,2.0,7.0,98,0.00,,,0.03,0.000000,,2013-08-24 05:53:00,
2013-08-24 02:02:00,69.0,68.0,-100.00,North,4,2.0,7.0,98,0.00,,,0.03,0.000000,,2013-08-24 06:02:00,
2013-08-24 02:12:00,69.0,68.0,-100.00,North,4,2.0,7.0,98,0.00,,,0.03,0.000000,,2013-08-24 06:12:00,
2013-08-24 02:22:00,69.0,68.0,-100.00,North,4,2.0,7.0,98,0.00,,,0.03,0.000000,,2013-08-24 06:22:00,
2013-08-24 02:31:00,67.0,66.0,-100.00,NNW,338,2.0,8.0,96,0.00,,,0.03,0.000000,,2013-08-24 06:31:00,
2013-08-24 02:52:00,67.0,66.0,-100.00,NNW,338,2.0,8.0,96,0.00,,,0.03,0.000000,,2013-08-24 06:52:00,
2013-08-24 03:02:00,67.0,66.0,-100.00,NNW,338,2.0,8.0,96,0.00,,,0.03,0.000000,,2013-08-24 07:02:00,
2013-08-24 03:12:00,67.0,66.0,-100.00,NNW,338,2.0,8.0,96,0.00,,,0.03,0.000000,,2013-08-24 07:12:00,
2013-08-24 03:22:00,67.0,66.0,-100.00,NNW,338,2.0,8.0,96,0.00,,,0.03,0.000000,,2013-08-24 07:22:00,
2013-08-24 03:31:00,66.0,64.0,-100.00,North,353,3.0,10.0,93,0.00,,,0.03,0.000000,,2013-08-24 07:31:00,
2013-08-24 03:53:00,66.0,64.0,-100.00,North,353,3.0,10.0,93,0.00,,,0.03,0.000000,,2013-08-24 07:53:00,
2013-08-24 04:02:00,66.0,64.0,-100.00,North,353,3.0,10.0,93,0.00,,,0.03,0.000000,,2013-08-24 08:02:00,
2013-08-24 04:12:00,66.0,64.0,-100.00,North,353,3.0,10.0,93,0.00,,,0.03,0.000000,,2013-08-24 08:12:00,
2013-08-24 04:22:00,66.0,64.0,-100.00,North,353,3.0,10.0,93,0.00,,,0.03,0.000000,,2013-08-24 08:22:00,
2013-08-24 04:31:00,65.0,63.0,-100.00,East,89,2.0,8.0,92,0.00,,,0.03,0.000000,,2013-08-24 08:31:00,
2013-08-24 05:11:00,65.0,63.0,-100.00,East,89,2.0,8.0,92,0.00,,,0.03,0.000000,,2013-08-24 09:11:00,
2013-08-24 05:22:00,65.0,63.0,-100.00,East,89,2.0,8.0,92,0.00,,,0.03,0.000000,,2013-08-24 09:22:00,
2013-08-24 05:31:00,64.0,62.0,-100.00,NW,323,2.0,6.0,93,0.00,,,0.03,0.000000,,2013-08-24 09:31:00,
2013-08-24 05:53:00,64.0,62.0,-100.00,NW,323,2.0,6.0,93,0.00,,,0.03,0.000000,,2013-08-24 09:53:00,
2013-08-24 06:04:00,64.0,62.0,-100.00,NW,323,2.0,6.0,93,0.00,,,0.03,0.000000,,2013-08-24 10:04:00,
2013-08-24 06:13:00,64.0,62.0,-100.00,NW,323,2.0,6.0,93,0.00,,,0.03,0.000000,,2013-08-24 10:13:00,
2013-08-24 06:23:00,64.0,62.0,-100.00,NW,323,2.0,6.0,93,0.00,,,0.03,0.000000,,2013-08-24 10:23:00,
2013-08-24 06:31:00,62.0,61.0,-100.00,NW,317,0.0,4.0,97,0.00,,,0.03,0.000000,,2013-08-24 10:31:00,
2013-08-24 06:53:00,62.0,61.0,-100.00,NW,317,0.0,4.0,97,0.00,,,0.03,0.000000,,2013-08-24 10:53:00,
2013-08-24 07:03:00,62.0,61.0,-100.00,NW,317,0.0,4.0,97,0.00,,,0.03,0.000000,,2013-08-24 11:03:00,
2013-08-24 07:12:00,62.0,61.0,-100.00,NW,317,0.0,4.0,97,0.00,,,0.03,0.000000,,2013-08-24 11:12:00,
2013-08-24 07:22:00,62.0,61.0,-100.00,NW,317,0.0,4.0,97,0.00,,,0.03,0.000000,,2013-08-24 11:22:00,
2013-08-24 07:31:00,63.0,62.0,-100.00,North,358,1.0,5.0,97,0.00,,,0.03,9.000000,,2013-08-24 11:31:00,
2013-08-24 07:52:00,63.0,62.0,-100.00,North,358,1.0,5.0,97,0.00,,,0.03,9.000000,,2013-08-24 11:52:00,
2013-08-24 08:02:00,63.0,62.0,-100.00,North,358,1.0,5.0,97,0.00,,,0.03,9.000000,,2013-08-24 12:02:00,
2013-08-24 08:12:00,63.0,62.0,-100.00,North,358,1.0,5.0,97,0.00,,,0.03,9.000000,,2013-08-24 12:12:00,
2013-08-24 08:21:00,63.0,62.0,-100.00,North,358,1.0,5.0,97,0.00,,,0.03,9.000000,,2013-08-24 12:21:00,
2013-08-24 08:31:00,66.0,64.0,-100.00,NNW,341,2.0,6.0,92,0.00,,,0.03,62.000000,,2013-08-24 12:31:00,
2013-08-24 08:52:00,66.0,64.0,-100.00,NNW,341,2.0,6.0,92,0.00,,,0.03,62.000000,,2013-08-24 12:52:00,
2013-08-24 09:02:00,66.0,64.0,-100.00,NNW,341,2.0,6.0,92,0.00,,,0.03,62.000000,,2013-08-24 13:02:00,
2013-08-24 09:11:00,66.0,64.0,-100.00,NNW,341,2.0,6.0,92,0.00,,,0.03,62.000000,,2013-08-24 13:11:00,
2013-08-24 09:22:00,66.0,64.0,-100.00,NNW,341,2.0,6.0,92,0.00,,,0.03,62.000000,,2013-08-24 13:22:00,
2013-08-24 09:31:00,70.0,65.0,-100.00,NNW,329,2.0,7.0,84,0.00,,,0.03,261.000000,,2013-08-24 13:31:00,
2013-08-24 09:52:00,70.0,65.0,-100.00,NNW,329,2.0,7.0,84,0.00,,,0.03,261.000000,,2013-08-24 13:52:00,
2013-08-24 10:02:00,70.0,65.0,-100.00,NNW,329,2.0,7.0,84,0.00,,,0.03,261.000000,,2013-08-24 14:02:00,
2013-08-24 10:11:00,70.0,65.0,-100.00,NNW,329,2.0,7.0,84,0.00,,,0.03,261.000000,,2013-08-24 14:11:00,
2013-08-24 10:22:00,70.0,65.0,-100.00,NNW,329,2.0,7.0,84,0.00,,,0.03,261.000000,,2013-08-24 14:22:00,
2013-08-24 10:31:00,74.0,65.0,-100.00,NNW,331,3.0,8.0,74,0.00,,,0.03,444.000000,,2013-08-24 14:31:00,
2013-08-24 10:52:00,74.0,65.0,-100.00,NNW,331,3.0,8.0,74,0.00,,,0.03,444.000000,,2013-08-24 14:52:00,
2013-08-24 11:01:00,74.0,65.0,-100.00,NNW,331,3.0,8.0,74,0.00,,,0.03,444.000000,,2013-08-24 15:01:00,
2013-08-24 11:12:00,74.0,65.0,-100.00,NNW,331,3.0,8.0,74,0.00,,,0.03,444.000000,,2013-08-24 15:12:00,
2013-08-24 11:22:00,74.0,65.0,-100.00,NNW,331,3.0,8.0,74,0.00,,,0.03,444.000000,,2013-08-24 15:22:00,
2013-08-24 11:31:00,77.0,65.0,-100.00,North,356,3.0,10.0,67,0.00,,,0.03,700.000000,,2013-08-24 15:31:00,
2013-08-24 11:54:00,77.0,65.0,-100.00,North,356,3.0,10.0,67,0.00,,,0.03,700.000000,,2013-08-24 15:54:00,
2013-08-24 12:04:00,77.0,65.0,-100.00,North,356,3.0,10.0,67,0.00,,,0.03,700.000000,,2013-08-24 16:04:00,
2013-08-24 12:14:00,77.0,65.0,-100.00,North,356,3.0,10.0,67,0.00,,,0.03,700.000000,,2013-08-24 16:14:00,
2013-08-24 12:23:00,77.0,65.0,-100.00,North,356,3.0,10.0,67,0.00,,,0.03,700.000000,,2013-08-24 16:23:00,
2013-08-24 12:31:00,80.0,65.0,-100.00,East,87,3.0,10.0,60,0.00,,,0.03,907.000000,,2013-08-24 16:31:00,
2013-08-24 12:53:00,80.0,65.0,-100.00,East,87,3.0,10.0,60,0.00,,,0.03,907.000000,,2013-08-24 16:53:00,
2013-08-24 13:02:00,80.0,65.0,-100.00,East,87,3.0,10.0,60,0.00,,,0.03,907.000000,,2013-08-24 17:02:00,
2013-08-24 13:12:00,80.0,65.0,-100.00,East,87,3.0,10.0,60,0.00,,,0.03,907.000000,,2013-08-24 17:12:00,
2013-08-24 13:23:00,80.0,65.0,-100.00,East,87,3.0,10.0,60,0.00,,,0.03,907.000000,,2013-08-24 17:23:00,
2013-08-24 13:31:00,81.0,64.0,-100.00,North,351,3.0,10.0,56,0.00,,,0.03,942.000000,,2013-08-24 17:31:00,
2013-08-24 13:52:00,81.0,64.0,-100.00,North,351,3.0,10.0,56,0.00,,,0.03,942.000000,,2013-08-24 17:52:00,
2013-08-24 14:03:00,81.0,64.0,-100.00,North,351,3.0,10.0,56,0.00,,,0.03,942.000000,,2013-08-24 18:03:00,
2013-08-24 14:13:00,81.0,64.0,-100.00,North,351,3.0,10.0,56,0.00,,,0.03,942.000000,,2013-08-24 18:13:00,
2013-08-24 14:22:00,81.0,64.0,-100.00,North,351,3.0,10.0,56,0.00,,,0.03,942.000000,,2013-08-24 18:22:00,
2013-08-24 14:31:00,81.0,63.0,-100.00,NE,37,3.0,10.0,55,0.00,,,0.03,919.000000,,2013-08-24 18:31:00,
2013-08-24 14:53:00,81.0,63.0,-100.00,NE,37,3.0,10.0,55,0.00,,,0.03,919.000000,,2013-08-24 18:53:00,
2013-08-24 15:01:00,81.0,63.0,-100.00,NE,37,3.0,10.0,55,0.00,,,0.03,919.000000,,2013-08-24 19:01:00,
2013-08-24 15:12:00,81.0,63.0,-100.00,NE,37,3.0,10.0,55,0.00,,,0.03,919.000000,,2013-08-24 19:12:00,
2013-08-24 15:22:00,81.0,63.0,-100.00,NE,37,3.0,10.0,55,0.00,,,0.03,919.000000,,2013-08-24 19:22:00,
2013-08-24 15:31:00,82.0,64.0,-100.00,North,351,3.0,11.0,55,0.00,,,0.03,874.000000,,2013-08-24 19:31:00,
2013-08-24 15:52:00,82.0,64.0,-100.00,North,351,3.0,11.0,55,0.00,,,0.03,874.000000,,2013-08-24 19:52:00,
2013-08-24 16:02:00,82.0,64.0,-100.00,North,351,3.0,11.0,55,0.00,,,0.03,874.000000,,2013-08-24 20:02:00,
2013-08-24 16:12:00,82.0,64.0,-100.00,North,351,3.0,11.0,55,0.00,,,0.03,874.000000,,2013-08-24 20:12:00,
2013-08-24 16:22:00,82.0,64.0,-100.00,North,351,3.0,11.0,55,0.00,,,0.03,874.000000,,2013-08-24 20:22:00,
2013-08-24 16:31:00,82.0,63.0,-100.00,East,84,3.0,8.0,53,0.00,,,0.03,700.000000,,2013-08-24 20:31:00,
2013-08-24 16:53:00,82.0,63.0,-100.00,East,84,3.0,8.0,53,0.00,,,0.03,700.000000,,2013-08-24 20:53:00,
2013-08-24 17:02:00,82.0,63.0,-100.00,East,84,3.0,8.0,53,0.00,,,0.03,700.000000,,2013-08-24 21:02:00,
2013-08-24 17:11:00,82.0,63.0,-100.00,East,84,3.0,8.0,53,0.00,,,0.03,700.000000,,2013-08-24 21:11:00,
2013-08-24 17:22:00,82.0,63.0,-100.00,East,84,3.0,8.0,53,0.00,,,0.03,700.000000,,2013-08-24 21:22:00,
2013-08-24 17:31:00,81.0,61.0,-100.00,ENE,59,3.0,9.0,50,0.00,,,0.01,624.000000,,2013-08-24 21:31:00,
2013-08-24 17:55:00,81.0,61.0,-100.00,ENE,59,3.0,9.0,50,0.00,,,0.01,624.000000,,2013-08-24 21:55:00,
2013-08-24 18:04:00,81.0,61.0,-100.00,ENE,59,3.0,9.0,50,0.00,,,0.01,624.000000,,2013-08-24 22:04:00,
2013-08-24 18:14:00,81.0,61.0,-100.00,ENE,59,3.0,9.0,50,0.00,,,0.01,624.000000,,2013-08-24 22:14:00,
2013-08-24 18:24:00,81.0,61.0,-100.00,ENE,59,3.0,9.0,50,0.00,,,0.01,624.000000,,2013-08-24 22:24:00,
2013-08-24 18:31:00,80.0,63.0,-100.00,ENE,66,2.0,8.0,56,0.00,,,-99.99,421.000000,,2013-08-24 22:31:00,
2013-08-24 18:53:00,80.0,63.0,-100.00,ENE,66,2.0,8.0,56,0.00,,,-99.99,421.000000,,2013-08-24 22:53:00,
2013-08-24 19:03:00,80.0,63.0,-100.00,ENE,66,2.0,8.0,56,0.00,,,-99.99,421.000000,,2013-08-24 23:03:00,
2013-08-24 19:12:00,80.0,63.0,-100.00,ENE,66,2.0,8.0,56,0.00,,,-99.99,421.000000,,2013-08-24 23:12:00,
2013-08-24 19:22:00,80.0,63.0,-100.00,ENE,66,2.0,8.0,56,0.00,,,-99.99,421.000000,,2013-08-24 23:22:00,
2013-08-24 19:31:00,73.0,62.0,-100.00,ESE,110,0.0,6.0,69,0.00,,,0.00,113.000000,,2013-08-24 23:31:00,
2013-08-24 19:53:00,73.0,62.0,-100.00,ESE,110,0.0,6.0,69,0.00,,,0.00,113.000000,,2013-08-24 23:53:00,
2013-08-24 20:02:00,73.0,62.0,-100.00,ESE,110,0.0,6.0,69,0.00,,,0.00,113.000000,,2013-08-25 00:02:00,
2013-08-24 20:12:00,73.0,62.0,-100.00,ESE,110,0.0,6.0,69,0.00,,,0.00,113.000000,,2013-08-25 00:12:00,
2013-08-24 20:22:00,73.0,62.0,-100.00,ESE,110,0.0,6.0,69,0.00,,,0.00,113.000000,,2013-08-25 00:22:00,
2013-08-24 20:31:00,67.0,62.0,-100.00,SE,126,0.0,2.0,84,0.00,,,0.00,8.000000,,2013-08-25 00:31:00,
2013-08-24 20:52:00,67.0,62.0,-100.00,SE,126,0.0,2.0,84,0.00,,,0.00,8.000000,,2013-08-25 00:52:00,
2013-08-24 21:01:00,67.0,62.0,-100.00,SE,126,0.0,2.0,84,0.00,,,0.00,8.000000,,2013-08-25 01:01:00,
2013-08-24 21:11:00,67.0,62.0,-100.00,SE,126,0.0,2.0,84,0.00,,,0.00,8.000000,,2013-08-25 01:11:00,
2013-08-24 21:22:00,67.0,62.0,-100.00,SE,126,0.0,2.0,84,0.00,,,0.00,8.000000,,2013-08-25 01:22:00,
2013-08-24 21:31:00,65.0,60.0,-100.00,ESE,113,0.0,4.0,84,0.00,,,0.00,0.000000,,2013-08-25 01:31:00,
2013-08-24 21:52:00,65.0,60.0,-100.00,ESE,113,0.0,4.0,84,0.00,,,0.00,0.000000,,2013-08-25 01:52:00,
2013-08-24 22:02:00,65.0,60.0,-100.00,ESE,113,0.0,4.0,84,0.00,,,0.00,0.000000,,2013-08-25 02:02:00,
2013-08-24 22:12:00,65.0,60.0,-100.00,ESE,113,0.0,4.0,84,0.00,,,0.00,0.000000,,2013-08-25 02:12:00,
2013-08-24 22:22:00,65.0,60.0,-100.00,ESE,113,0.0,4.0,84,0.00,,,0.00,0.000000,,2013-08-25 02:22:00,
2013-08-24 22:31:00,63.0,59.0,-100.00,East,96,0.0,2.0,87,0.00,,,0.00,0.000000,,2013-08-25 02:31:00,
2013-08-24 22:52:00,63.0,59.0,-100.00,East,96,0.0,2.0,87,0.00,,,0.00,0.000000,,2013-08-25 02:52:00,
2013-08-24 23:02:00,63.0,59.0,-100.00,East,96,0.0,2.0,87,0.00,,,0.00,0.000000,,2013-08-25 03:02:00,
2013-08-24 23:11:00,63.0,59.0,-100.00,East,96,0.0,2.0,87,0.00,,,0.00,0.000000,,2013-08-25 03:11:00,
2013-08-24 23:23:00,63.0,59.0,-100.00,East,96,0.0,2.0,87,0.00,,,0.00,0.000000,,2013-08-25 03:23:00,
2013-08-24 23:31:00,63.0,61.0,-100.00,ESE,117,0.0,2.0,93,0.00,,,0.00,0.000000,,2013-08-25 03:31:00,
2013-08-24 23:54:00,63.0,61.0,-100.00,ESE,117,0.0,2.0,93,0.00,,,0.00,0.000000,,2013-08-25 03:54:00,